Overview Statistics Trail Chart Weather Telemetry Raw packets
 

This is the latest recevied weather packets stored in our database for station/object KH6HHG. If no packets are shown the sender has not sent any weather packets the latest 10 day(s).

<< 42 43 44 45 46 47 48 >>
Time Temp. Humidity Pressure Rain* Wind** Luminosity Snow
1777406048 25° C 68% 1013.3 hPa 0 mm - - -
1777405748 25° C 72% 1013.3 hPa 0 mm - - -
1777405448 25° C 72% 1013.4 hPa 0 mm - - -
1777405148 25° C 75% 1013.4 hPa 0 mm - - -
1777404848 24.44° C 73% 1013.5 hPa 0 mm - - -
1777404548 24.44° C 73% 1013.5 hPa 0 mm - - -
1777404248 24.44° C 74% 1013.4 hPa 0 mm - - -
1777403948 24.44° C 73% 1013.4 hPa 0 mm - - -
1777403648 24.44° C 73% 1013.4 hPa 0 mm - - -
1777403348 24.44° C 73% 1013.3 hPa 0 mm - - -
1777403048 24.44° C 74% 1013.1 hPa 0 mm - - -
1777402748 24.44° C 72% 1013.1 hPa 0 mm - - -
1777402448 25° C 72% 1013 hPa 0 mm - - -
1777402148 24.44° C 70% 1013 hPa 0 mm - - -
1777401848 23.89° C 72% 1012.9 hPa 0 mm - - -
1777401548 23.89° C 70% 1012.9 hPa 0 mm - - -
1777401248 23.33° C 72% 1013 hPa 0 mm - - -
1777400947 23.33° C 75% 1012.9 hPa 0 mm - - -
1777400647 23.33° C 75% 1013 hPa 0 mm - - -
1777400347 23.33° C 75% 1012.9 hPa 0 mm - - -
1777400047 22.78° C 74% 1013 hPa 0 mm - - -
1777399747 22.22° C 76% 1013 hPa 0 mm - - -
1777399447 21.67° C 79% 1012.9 hPa 0 mm - - -
1777399147 21.11° C 81% 1013 hPa 0 mm - - -
1777398847 20.56° C 83% 1012.8 hPa 0 mm - - -

* Rain latest hour (hover to see other rain measurements)
** Current wind speed in m/s (hover to see current wind gust speed)